Vertical_Velocity
-1 -0 -1 -2 1 2 0 -0 1 -0 -2 -1 1 -0 0 -1 -1 -0 1 -1 -3 -3 1 2 1 1 0 -1 -0 1 1 -1 -1
1 -0 -1 0 -2 -1 0 -1 0 0 0 -0 -1 1 0 1 -1 -1 -1 2 0 -2 -2 5 -3 -0 -1 -0 1 -1 -2 -2 -2
0 -2 1 1 1 -2 -0 -1 -1 0 -1 1 -0 -1 -0 1 3 -1 -2 0 3 0 -2 -3 -2 -1 -1 -2 -2 -1 -1 0 -1
3 6 4 1 0 0 -1 0 -0 0 -0 -0 -2 1 -1 -1 -1 3 -1 -4 4 -2 2 -0 1 -1 -1 -0 -1 -0 -1 -2 -3
-2 2 2 1 -0 4 -0 1 2 0 0 -0 1 0 2 -1 0 -1 1 0 -1 -1 1 0 -1 -0 -0 1 0 1 1 0 1
0 -0 3 2 3 -1 2 -0 0 1 1 1 1 1 0 1 -0 -0 -1 -0 -1 -1 -0 2 -2 -1 -0 0 1 -0 -0 -0 -1
0 1 0 3 -2 2 1 3 1 2 -0 0 2 -0 -0 -1 0 0 2 -1 -1 0 -1 -0 2 1 0 -2 -3 -0 1 0 -0
-0 -1 3 6 6 -1 7 1 1 -0 -0 -1 -1 0 1 0 -0 -1 0 2 0 -2 0 -1 -1 -1 1 1 2 -1 -1 1 1
-0 -1 2 2 3 3 -1 -2 -0 -0 1 1 1 0 -0 -1 -1 -1 2 2 3 1 -0 -2 0 -2 -1 1 0 -0 -1 0 2
-1 -2 -2 -1 1 2 1 2 0 -2 2 2 -0 -1 -0 -0 -1 -1 0 0 0 3 2 1 -1 -1 0 -3 0 1 0 -0 -1
2 2 1 -2 2 2 2 1 1 0 -1 -2 2 1 0 0 -1 -1 -1 0 -0 -0 1 2 3 -1 0 -0 -2 -1 1 1 -0
-0 -2 -0 1 1 -1 -1 -1 1 1 1 -8 -4 6 2 3 1 -1 -2 0 1 -1 -1 -0 2 6 -0 1 -1 -2 -2 -1 1
-2 -1 -1 2 3 4 2 3 1 0 -0 -2 6 0 2 -2 -5 1 0 -4 -1 2 -0 -1 -2 2 4 -1 1 -1 -1 -2 -3
1 -0 -2 0 -2 -0 2 1 4 3 2 1 0 4 -4 -6 -2 5 1 5 -2 -5 1 1 -1 -1 1 2 0 1 2 -1 -2
-1 -1 -1 2 0 -0 -0 0 1 0 -1 0 -1 -3 -5 4 -6 -6 6 0 1 -1 -0 3 -4 -1 1 -0 1 1 1 2 0
1 0 -1 1 3 3 5 2 2 -0 2 2 4 -3 -5 -2 -4 -1 -5 -4 9 8 -1 2 -1 -3 -1 3 1 1 2 2 2
-1 2 3 4 3 1 0 1 -1 -2 1 -0 3 -6 -7 -0 -4 -4 -2 -5 6 -3 -6 2 2 -3 -4 -3 1 -0 1 3 2
1 0 -1 -1 2 7 7 4 3 1 0 4 -6 2 -7 2 2 -2 -4 -3 0 3 -14 9 0 -5 -5 -1 4 -1 0 1 3
2 0 2 2 1 -1 -3 -3 1 5 3 -4 3 4 4 -3 -1 -2 -5 4 4 10 3 10 -0 2 -3 -3 0 2 3 3 6
2 4 1 3 4 3 5 4 2 3 5 2 1 1 2 -5 5 -9 -5 -0 0 1 5 4 -2 10 9 -8 0 3 3 8 3
Height
1561 1561 1561 1562 1562 1562 1562 1562 1563 1563 1563 1563 1563 1563 1563 1562 1562 1562 1561 1561 1561 1561 1561 1562 1561 1561 1561 1560 1560 1559 1559 1559 1559
1561 1560 1560 1560 1561 1561 1561 1561 1562 1562 1562 1562 1562 1562 1562 1562 1562 1562 1561 1561 1560 1560 1561 1561 1560 1560 1560 1561 1561 1560 1560 1559 1559
1559 1559 1559 1559 1559 1559 1560 1560 1560 1560 1561 1561 1561 1561 1561 1562 1561 1561 1561 1561 1561 1560 1560 1560 1560 1561 1560 1560 1561 1560 1560 1560 1560
1558 1558 1558 1557 1557 1557 1557 1557 1558 1558 1559 1559 1559 1560 1560 1560 1560 1560 1559 1560 1560 1561 1560 1560 1559 1559 1560 1559 1560 1560 1560 1560 1560
1555 1555 1556 1556 1555 1555 1555 1555 1556 1556 1556 1557 1557 1558 1558 1558 1558 1558 1558 1558 1558 1559 1559 1559 1558 1559 1559 1559 1560 1560 1560 1560 1560
1552 1552 1552 1552 1553 1552 1552 1553 1553 1553 1554 1554 1554 1555 1555 1555 1556 1555 1556 1556 1556 1557 1557 1558 1557 1557 1558 1558 1559 1559 1559 1559 1559
1548 1548 1548 1549 1548 1549 1549 1549 1550 1550 1550 1550 1551 1551 1551 1552 1552 1553 1553 1553 1554 1555 1555 1555 1555 1555 1556 1556 1557 1557 1558 1558 1558
1543 1543 1544 1544 1544 1544 1545 1545 1545 1545 1546 1546 1547 1547 1547 1548 1548 1549 1550 1550 1551 1551 1552 1552 1553 1553 1554 1554 1555 1555 1556 1556 1556
1538 1538 1539 1539 1539 1539 1540 1540 1540 1540 1541 1541 1542 1542 1542 1543 1544 1545 1546 1547 1547 1548 1549 1549 1549 1549 1550 1551 1552 1552 1553 1553 1554
1532 1532 1532 1533 1533 1533 1533 1533 1534 1534 1535 1536 1536 1537 1537 1538 1539 1539 1541 1542 1544 1545 1545 1546 1545 1545 1546 1547 1548 1549 1549 1550 1551
1525 1525 1525 1526 1526 1527 1527 1527 1527 1527 1528 1529 1530 1531 1531 1532 1533 1534 1535 1537 1538 1540 1541 1542 1542 1542 1542 1542 1543 1544 1545 1546 1547
1517 1517 1517 1518 1519 1519 1520 1520 1520 1520 1520 1521 1522 1523 1524 1525 1527 1528 1529 1530 1531 1533 1535 1536 1538 1539 1539 1539 1539 1539 1540 1542 1543
1509 1508 1508 1510 1511 1511 1511 1512 1513 1513 1514 1514 1514 1515 1515 1517 1519 1520 1521 1522 1524 1526 1527 1530 1531 1533 1534 1535 1535 1535 1535 1536 1537
1500 1499 1499 1502 1501 1502 1503 1503 1504 1505 1506 1507 1507 1507 1507 1507 1510 1511 1513 1514 1514 1517 1520 1522 1524 1526 1527 1528 1530 1530 1530 1531 1532
1489 1488 1489 1491 1492 1492 1493 1494 1496 1496 1497 1497 1497 1499 1500 1499 1498 1502 1503 1504 1505 1506 1510 1513 1514 1517 1520 1521 1523 1525 1525 1526 1526
1480 1478 1478 1480 1481 1483 1485 1486 1486 1487 1489 1489 1488 1488 1489 1490 1490 1491 1491 1488 1488 1495 1500 1503 1505 1507 1511 1514 1515 1517 1519 1520 1521
1473 1471 1470 1470 1470 1472 1475 1478 1478 1478 1481 1482 1483 1480 1481 1478 1480 1482 1481 1480 1482 1487 1489 1495 1494 1497 1501 1505 1507 1509 1512 1513 1514
1467 1466 1465 1463 1464 1463 1465 1468 1470 1470 1471 1474 1476 1476 1471 1474 1472 1471 1472 1472 1472 1477 1472 1483 1482 1487 1491 1496 1498 1501 1504 1507 1507
1461 1459 1459 1458 1459 1459 1459 1461 1463 1464 1463 1466 1467 1466 1467 1467 1465 1464 1464 1465 1464 1465 1467 1471 1473 1478 1481 1485 1488 1492 1496 1498 1500
1452 1452 1453 1453 1452 1454 1453 1454 1454 1455 1456 1456 1458 1458 1458 1460 1461 1456 1458 1459 1458 1457 1458 1460 1462 1468 1471 1472 1477 1481 1485 1488 1490